Wetbulb
56.30 56.16 55.90 55.83 56.38 56.20 56.37 56.56 56.26 56.05 55.96 56.74 57.18 57.30 57.54 57.42 56.49 58.05 58.50 62.26 63.17 64.70 64.81 62.66 62.83 62.13 61.69 59.05 61.24 62.42 56.29 53.96 53.27 55.34 54.41 59.10 58.09 62.60 63.55 62.71 63.48 63.67 63.32 64.41 64.05
56.11 56.18 55.95 55.88 56.34 56.40 56.59 56.43 55.95 55.91 56.36 56.67 56.85 56.87 57.02 57.12 56.35 55.63 63.85 64.91 64.50 65.08 62.40 60.24 59.60 60.68 57.39 58.10 59.16 57.99 55.44 55.39 57.63 58.12 56.71 58.20 58.67 60.98 60.13 61.60 60.49 61.07 64.34 63.95 63.26
55.63 55.66 55.81 55.93 55.95 56.48 56.38 56.11 55.74 55.75 56.08 56.38 56.47 56.66 56.83 56.96 55.27 56.78 62.95 66.38 64.92 65.20 60.55 61.59 60.95 58.68 55.73 57.79 58.28 58.79 55.69 57.93 57.92 58.42 58.68 57.67 58.05 60.81 59.17 59.24 61.09 59.72 61.48 62.11 61.72
55.23 55.06 55.34 55.71 55.74 56.41 56.01 55.43 55.58 55.48 55.44 55.97 56.16 56.96 56.98 57.89 50.23 57.82 64.98 65.72 65.85 63.49 59.45 60.42 58.71 55.47 54.16 53.83 57.87 54.91 57.68 58.09 57.97 58.90 57.95 56.79 59.73 58.70 60.54 60.52 62.89 63.66 63.05 62.36 61.37
55.69 54.99 55.45 55.54 55.73 56.15 55.61 55.30 55.22 55.26 55.31 55.42 56.08 56.91 57.89 54.96 56.22 60.14 66.12 64.79 62.28 60.79 57.71 58.64 56.21 55.24 52.79 54.51 55.83 55.15 56.30 57.66 58.46 58.87 58.53 60.66 58.77 58.67 58.89 62.16 64.91 64.26 63.06 62.01 62.05
55.58 55.68 55.85 55.56 55.56 55.84 55.34 54.98 54.79 54.81 55.03 55.10 56.43 56.51 56.83 49.99 59.93 60.26 60.07 60.94 59.47 58.48 57.84 58.53 56.41 56.94 55.01 54.49 53.98 55.97 55.64 56.42 57.58 57.59 58.35 58.44 58.67 59.70 58.92 61.52 61.57 63.15 62.07 62.23 62.19
55.42 55.49 55.71 55.54 55.36 55.24 55.01 54.48 54.24 54.48 54.79 55.40 56.69 58.62 53.96 53.21 58.67 60.44 59.56 58.89 59.18 59.03 56.78 58.76 58.71 56.66 56.09 53.08 55.88 55.16 53.04 54.79 55.58 56.62 56.74 59.70 56.32 56.69 60.18 60.96 59.40 61.30 62.05 62.07 62.42
55.36 55.38 55.11 54.73 54.56 54.44 54.12 53.93 53.81 54.42 54.91 56.17 57.04 58.94 51.30 58.16 59.36 57.88 59.26 58.24 59.55 59.62 58.99 59.84 59.74 57.18 55.70 56.37 54.79 53.37 54.33 50.50 54.77 57.49 58.83 58.21 51.19 57.58 60.32 59.35 59.32 60.25 61.19 61.42 62.04
54.98 55.05 54.64 54.11 54.10 53.98 53.47 53.33 53.76 54.42 56.01 57.12 57.13 57.80 52.61 58.34 54.14 56.45 58.43 56.36 58.24 58.80 59.36 59.18 58.35 55.49 55.17 51.57 50.02 51.52 47.85 49.48 52.14 57.59 56.85 56.31 52.27 56.54 59.02 58.55 58.76 59.15 59.58 60.32 60.48
54.37 54.30 54.26 54.32 53.79 53.07 52.40 52.03 55.14 55.52 56.38 59.76 59.48 52.80 53.35 51.59 55.21 58.30 60.12 58.86 57.07 56.98 56.10 55.96 54.71 51.86 51.83 49.60 44.71 47.13 46.89 49.77 49.95 54.46 55.18 53.34 52.31 56.20 58.39 58.66 58.42 58.07 58.22 58.23 58.32
53.67 53.87 54.05 53.73 53.10 52.62 52.51 60.00 56.87 55.72 58.45 53.39 53.24 52.48 51.85 54.93 57.71 56.98 59.07 57.36 57.28 55.22 50.86 54.26 50.17 47.85 50.22 51.87 51.29 50.58 49.61 49.02 53.01 54.73 53.16 52.39 52.75 53.84 56.47 57.50 57.04 56.38 55.67 55.78 55.98
53.91 53.73 53.85 53.38 52.67 52.39 52.45 58.11 57.97 59.03 53.89 58.22 57.09 53.21 54.09 56.70 52.73 54.50 58.88 53.88 53.57 50.12 52.69 51.40 48.92 52.18 53.17 52.60 51.51 50.64 49.10 48.44 50.47 52.18 52.61 52.19 50.13 52.04 53.06 53.45 55.68 54.87 54.47 54.09 54.34
53.75 53.32 53.24 52.52 52.05 53.55 58.57 58.96 60.48 61.00 54.12 56.06 54.86 53.29 52.63 54.46 51.48 53.02 56.55 54.39 51.91 50.54 50.72 49.29 51.09 53.84 51.94 50.69 49.64 49.43 48.07 47.87 47.86 50.86 51.88 51.75 47.69 49.09 51.23 52.82 53.44 53.91 54.22 54.03 53.28
53.42 52.91 52.69 51.61 50.94 58.87 57.74 60.61 61.58 63.33 53.47 50.32 49.64 52.71 52.58 53.27 50.59 56.13 57.35 54.54 51.88 50.02 51.08 50.50 53.02 51.42 50.23 49.38 49.89 46.16 50.17 49.37 48.83 47.60 43.81 50.21 42.28 48.08 49.26 49.01 50.66 51.57 52.36 52.24 52.41
52.76 52.72 52.47 51.72 51.94 56.65 60.54 60.99 63.11 62.56 43.25 50.79 51.02 56.17 53.41 50.88 52.73 53.42 57.66 55.05 50.24 50.48 50.83 48.91 50.08 49.36 48.39 48.95 50.66 47.44 50.56 49.33 49.01 47.20 47.41 46.94 40.66 44.79 50.78 46.61 47.31 49.49 50.94 51.48 51.78
52.41 52.54 52.17 54.39 54.79 60.07 61.80 61.39 61.97 50.15 42.81 47.95 49.82 48.34 47.55 51.30 52.96 53.61 54.16 56.18 54.94 51.48 51.19 50.18 53.37 51.18 50.56 51.55 51.15 51.35 49.37 49.00 49.01 47.74 42.38 46.02 45.34 43.95 46.15 47.17 47.37 48.77 49.56 50.03 50.16
51.91 52.01 51.08 54.08 54.41 60.46 60.67 58.92 48.73 44.18 51.63 47.20 47.19 48.44 48.01 49.31 50.50 51.39 49.99 49.91 48.17 45.71 46.38 48.99 49.14 51.50 51.32 48.18 50.54 49.58 47.09 41.47 40.89 41.20 40.81 48.14 43.66 44.02 46.77 48.34 48.81 47.60 47.84 48.97 49.32
51.36 51.24 53.71 54.79 58.09 60.03 58.02 52.30 43.98 45.57 48.86 50.52 48.76 48.52 48.30 50.11 50.00 49.92 49.28 47.60 50.69 50.04 47.44 45.59 43.60 49.18 51.75 49.31 47.89 48.92 48.05 43.35 37.14 38.69 41.87 47.49 41.04 42.34 47.97 48.84 49.20 49.03 48.56 48.81 48.01
51.21 54.76 55.05 59.09 59.14 59.95 53.36 46.38 44.23 47.85 50.75 49.01 48.46 46.43 47.20 49.54 49.75 49.33 48.89 48.70 50.33 50.87 46.31 46.40 45.42 51.15 51.21 51.72 51.06 49.03 45.80 50.17 45.52 46.40 42.60 42.57 45.04 47.87 49.08 48.35 48.46 48.10 48.38 47.46 47.50
52.93 55.30 54.89 61.88 61.24 57.60 51.45 45.97 48.88 52.34 51.72 50.80 46.37 48.17 45.97 47.50 47.41 48.14 47.99 50.92 49.94 51.33 53.03 50.85 44.88 49.70 50.91 52.22 52.05 49.90 51.83 45.03 46.49 38.90 34.79 40.97 42.76 43.01 46.87 47.48 48.26 47.57 47.18 47.52 47.85
52.48 51.40 59.01 61.53 60.85 52.11 45.08 48.53 49.61 52.85 52.47 50.37 49.06 48.26 49.22 47.53 48.21 47.70 47.84 49.89 51.14 50.54 52.13 51.37 48.19 47.74 49.90 48.36 48.04 48.32 47.75 48.68 47.43 45.38 39.53 38.20 39.51 48.58 47.60 49.03 47.72 47.78 48.01 47.69 47.50
54.29 47.99 60.26 61.52 46.62 48.07 45.99 48.07 46.30 50.56 52.46 52.10 53.16 50.97 49.58 49.66 48.56 48.53 48.54 50.39 52.20 53.20 48.83 52.27 50.68 45.78 47.00 50.90 51.20 49.95 48.24 47.81 42.69 41.55 44.45 43.42 40.20 49.93 49.48 49.84 49.17 48.07 48.36 48.62 48.37
51.27 53.05 58.86 57.68 42.87 44.84 47.65 46.56 50.66 49.78 50.66 50.88 50.62 52.64 52.26 49.78 47.11 49.59 50.43 52.19 52.19 52.71 51.32 52.53 47.70 43.01 44.47 48.42 50.67 48.51 48.55 47.68 47.32 46.67 42.87 40.03 39.77 49.83 49.88 48.96 49.56 47.84 47.88 48.11 48.05
53.39 46.10 48.86 51.51 52.12 47.64 45.50 44.80 47.31 50.37 51.19 52.13 51.47 52.69 51.29 49.84 51.24 49.10 49.24 51.17 53.24 51.67 49.93 53.68 49.50 46.24 42.38 45.82 48.64 45.38 45.59 45.73 45.06 41.61 42.64 43.58 43.63 47.02 47.92 47.48 48.18 48.16 48.34 47.76 47.71
54.11 50.43 48.85 41.01 44.64 47.89 47.81 46.19 46.71 46.43 51.11 52.59 50.87 51.01 50.08 47.89 49.05 48.92 50.21 50.01 51.35 50.75 52.72 53.87 46.72 47.52 46.85 46.84 46.43 44.95 44.37 45.68 44.35 45.00 43.00 44.10 43.42 45.33 47.06 47.95 48.48 48.88 48.46 47.35 46.77
51.75 51.11 52.46 50.85 49.80 46.98 45.04 45.33 46.67 47.84 49.82 49.20 49.52 50.94 52.01 49.60 49.97 48.80 49.84 50.06 49.05 52.03 50.95 52.53 46.60 47.48 44.35 46.21 45.72 43.65 45.39 45.85 45.47 45.58 45.02 45.35 43.23 47.97 48.93 49.40 48.44 47.78 47.67 46.95 46.52
56.73 56.53 53.46 47.23 48.38 45.95 45.99 45.92 47.35 51.09 52.02 52.27 52.18 51.51 51.98 52.78 55.09 55.98 56.57 55.83 53.52 51.16 50.14 50.05 48.26 45.72 42.01 45.08 44.29 41.40 44.54 45.44 45.58 46.30 45.93 42.25 45.16 48.85 48.01 48.23 48.65 48.60 48.37 47.45 46.62
MSLP
1019.37 1019.21 1019.08 1018.76 1018.53 1018.40 1018.14 1017.73 1017.30 1016.95 1016.66 1016.18 1015.59 1015.13 1014.70 1014.12 1012.77 1011.36 1010.10 1008.58 1008.69 1008.93 1009.23 1008.64 1008.54 1007.42 1006.88 1006.20 1005.48 1004.98 1004.26 1002.71 1003.33 1003.71 1004.92 1004.83 1002.63 1001.44 1001.83 1002.66 1004.04 1005.54 1006.38 1007.72 1011.23
1019.29 1019.17 1019.02 1018.81 1018.44 1018.28 1018.02 1017.69 1017.16 1016.67 1016.35 1016.06 1015.52 1015.05 1014.63 1014.16 1012.49 1010.04 1008.33 1008.38 1008.64 1009.02 1008.76 1007.80 1007.31 1006.76 1006.12 1005.28 1004.76 1004.14 1003.41 1002.13 1002.88 1002.52 1003.14 1002.14 1002.04 1000.81 1001.36 1002.53 1005.09 1007.50 1007.61 1009.58 1011.68
1019.27 1019.03 1018.85 1018.73 1018.26 1018.08 1017.89 1017.56 1016.97 1016.53 1016.14 1015.89 1015.44 1014.90 1014.41 1014.16 1011.46 1007.63 1008.04 1008.32 1008.48 1008.58 1008.10 1007.10 1006.26 1005.72 1005.26 1004.63 1003.72 1003.13 1002.50 1001.66 1001.58 1002.47 1002.08 1001.60 1001.08 1000.90 1001.48 1003.12 1005.72 1007.50 1008.34 1010.58 1012.01
1019.11 1018.92 1018.71 1018.57 1018.15 1017.90 1017.68 1017.41 1016.89 1016.44 1016.18 1015.87 1015.33 1014.82 1014.11 1013.46 1009.75 1007.40 1007.84 1008.00 1008.26 1008.18 1008.06 1007.02 1005.69 1005.05 1004.64 1003.99 1003.16 1002.55 1002.04 1001.62 1001.18 1001.28 1001.66 1001.50 1001.41 1001.74 1002.01 1004.66 1005.58 1007.46 1009.02 1010.59 1011.89
1018.88 1018.74 1018.64 1018.43 1018.05 1017.79 1017.46 1017.22 1016.65 1016.30 1016.03 1015.74 1015.28 1014.95 1013.67 1011.38 1007.72 1007.37 1007.82 1007.81 1008.15 1008.28 1007.43 1006.46 1005.38 1004.95 1004.24 1003.68 1002.91 1002.14 1001.75 1001.37 1001.13 1001.14 1001.36 1001.80 1002.25 1004.14 1005.08 1006.39 1007.31 1008.66 1010.11 1010.45 1011.36
1018.64 1018.54 1018.46 1018.30 1017.88 1017.61 1017.29 1017.00 1016.41 1015.92 1015.76 1015.54 1015.26 1015.09 1013.92 1009.88 1005.83 1006.27 1006.44 1007.05 1006.88 1007.20 1006.64 1006.01 1004.94 1004.46 1003.95 1003.42 1002.92 1002.22 1001.77 1001.45 1001.36 1001.30 1001.65 1002.23 1002.77 1003.62 1005.68 1006.64 1006.44 1008.80 1010.67 1011.16 1011.47
1018.45 1018.29 1018.24 1018.10 1017.70 1017.36 1016.96 1016.68 1016.11 1015.75 1015.44 1015.14 1015.06 1014.50 1012.10 1008.14 1005.53 1005.30 1005.97 1005.97 1005.85 1005.96 1005.66 1005.16 1004.54 1004.24 1003.96 1003.81 1003.38 1002.79 1002.32 1001.97 1001.68 1001.36 1001.36 1002.68 1003.33 1004.70 1006.64 1006.18 1006.48 1007.73 1009.59 1010.73 1011.48
1018.22 1018.01 1017.99 1017.82 1017.50 1017.08 1016.62 1016.28 1015.60 1014.97 1014.76 1014.62 1014.71 1013.84 1010.04 1006.18 1005.88 1005.96 1005.48 1005.54 1005.40 1005.05 1005.02 1004.55 1004.27 1004.28 1004.12 1003.94 1003.30 1002.74 1002.54 1002.03 1001.30 1001.35 1003.39 1003.94 1004.46 1004.52 1005.64 1005.73 1006.30 1007.96 1009.44 1010.81 1011.64
1018.00 1017.76 1017.76 1017.54 1017.20 1016.83 1016.26 1015.64 1015.03 1014.39 1014.20 1014.27 1014.00 1012.42 1008.37 1006.20 1005.74 1005.52 1005.25 1005.01 1004.78 1005.04 1004.99 1004.81 1004.72 1004.60 1004.42 1004.07 1003.53 1002.78 1002.24 1001.46 1001.66 1002.71 1003.55 1005.22 1004.20 1005.45 1005.23 1005.62 1006.81 1008.49 1010.11 1011.34 1012.66
1017.80 1017.59 1017.55 1017.30 1016.96 1016.60 1015.78 1014.80 1014.10 1014.14 1013.74 1012.95 1011.60 1011.02 1007.60 1005.35 1004.52 1004.71 1004.70 1004.78 1004.38 1004.61 1004.76 1004.87 1004.87 1004.56 1004.06 1003.55 1002.67 1002.01 1001.50 1001.86 1002.14 1003.18 1003.79 1004.63 1005.09 1005.35 1005.27 1006.12 1007.29 1009.25 1010.98 1012.55 1013.72
1017.66 1017.48 1017.36 1017.09 1016.69 1016.48 1015.36 1013.19 1013.82 1013.12 1011.68 1009.15 1008.18 1007.21 1005.63 1005.15 1005.02 1004.95 1004.64 1004.66 1004.41 1004.31 1004.44 1004.36 1004.32 1003.68 1003.00 1002.58 1002.20 1001.85 1001.54 1001.64 1002.15 1002.48 1003.35 1005.10 1006.04 1006.75 1007.42 1007.60 1009.00 1010.58 1011.86 1013.36 1014.93
1017.54 1017.35 1017.09 1016.83 1016.34 1016.19 1015.86 1012.93 1011.12 1011.21 1009.58 1008.08 1007.41 1006.42 1005.83 1005.65 1004.56 1004.08 1003.81 1004.39 1004.36 1003.93 1003.95 1003.87 1003.17 1002.78 1002.43 1002.04 1002.31 1002.30 1002.12 1001.95 1001.84 1001.78 1002.80 1004.80 1007.27 1008.96 1009.75 1010.42 1010.89 1012.12 1013.36 1014.64 1016.31
1017.41 1017.20 1016.82 1016.56 1015.86 1015.12 1013.27 1011.36 1010.79 1010.71 1009.32 1006.40 1006.01 1005.64 1005.36 1005.32 1004.07 1003.25 1003.62 1003.80 1003.75 1003.76 1003.20 1002.90 1002.24 1001.89 1002.37 1002.24 1002.40 1002.42 1002.44 1002.29 1002.07 1001.89 1002.36 1004.37 1007.94 1009.40 1010.99 1011.88 1013.25 1013.99 1014.82 1015.85 1017.28
1017.25 1017.05 1016.63 1016.28 1015.71 1012.39 1011.57 1011.25 1011.05 1011.17 1008.73 1005.82 1005.26 1004.58 1004.53 1004.68 1003.87 1002.63 1003.08 1003.34 1003.22 1003.02 1002.94 1002.48 1002.02 1002.08 1002.51 1002.67 1002.80 1002.41 1002.19 1002.18 1002.30 1002.62 1002.85 1003.20 1007.05 1009.97 1011.68 1013.46 1014.60 1014.97 1015.84 1016.94 1018.25
1017.05 1016.85 1016.52 1016.72 1015.25 1012.35 1011.74 1011.73 1011.40 1011.13 1007.47 1004.66 1004.20 1004.27 1004.04 1004.09 1002.61 1003.03 1002.79 1002.76 1002.61 1002.50 1002.71 1002.27 1002.01 1002.27 1002.48 1002.90 1002.85 1002.64 1002.52 1002.80 1002.96 1002.99 1003.25 1003.64 1008.15 1010.50 1011.78 1013.91 1015.40 1016.00 1016.91 1017.87 1018.89
1016.71 1016.63 1016.38 1015.04 1014.76 1012.60 1012.14 1012.21 1011.60 1009.96 1005.32 1003.74 1003.78 1003.92 1003.90 1003.74 1002.78 1002.78 1002.97 1003.08 1002.49 1002.22 1002.44 1002.27 1001.98 1002.25 1002.41 1002.48 1002.54 1002.80 1003.04 1003.17 1003.24 1003.22 1003.48 1004.14 1005.96 1011.29 1012.64 1014.22 1015.86 1016.84 1017.91 1018.86 1019.56
1016.42 1016.45 1016.50 1015.31 1013.36 1012.72 1012.79 1011.84 1010.18 1006.92 1003.43 1003.24 1003.11 1003.36 1003.31 1003.09 1002.65 1002.78 1002.90 1002.92 1002.46 1002.53 1002.28 1002.25 1002.09 1002.24 1002.81 1002.85 1002.72 1003.00 1003.33 1003.23 1002.94 1003.08 1003.61 1004.89 1008.48 1012.27 1014.39 1015.35 1016.38 1017.97 1019.11 1019.49 1020.07
1016.14 1016.21 1015.12 1014.40 1013.15 1013.35 1012.74 1011.08 1007.87 1003.97 1002.65 1002.04 1002.50 1002.84 1002.53 1002.49 1002.50 1002.65 1002.72 1002.52 1002.52 1002.30 1001.72 1001.33 1001.63 1002.01 1002.41 1002.96 1002.85 1002.61 1002.82 1003.01 1002.97 1003.46 1004.54 1006.47 1010.22 1013.66 1015.51 1016.85 1017.84 1018.81 1019.50 1019.87 1020.68
1016.04 1014.92 1014.38 1013.13 1013.45 1013.30 1012.24 1009.28 1005.30 1002.94 1001.95 1001.94 1002.38 1002.38 1002.11 1002.42 1002.68 1002.82 1002.67 1002.22 1002.23 1002.64 1002.68 1001.98 1002.01 1002.66 1003.07 1003.14 1003.20 1002.60 1002.68 1002.96 1003.56 1004.16 1005.23 1008.88 1011.88 1013.81 1015.17 1016.76 1017.90 1018.60 1019.37 1020.08 1020.93
1015.36 1013.67 1012.52 1012.66 1013.05 1012.88 1011.31 1007.50 1004.71 1003.62 1002.28 1001.90 1001.85 1001.85 1001.80 1002.23 1002.82 1003.02 1003.02 1003.04 1003.29 1003.66 1003.76 1003.17 1002.78 1003.10 1003.40 1003.46 1003.23 1003.28 1003.44 1003.56 1004.56 1005.51 1007.20 1009.64 1011.34 1012.90 1014.40 1016.05 1017.42 1018.49 1019.42 1020.23 1021.02
1015.23 1012.97 1012.48 1012.35 1012.89 1011.85 1009.50 1006.62 1004.94 1004.19 1003.54 1002.65 1001.76 1001.61 1001.42 1002.00 1002.50 1002.93 1003.27 1004.18 1004.42 1004.29 1004.25 1004.01 1003.84 1003.90 1003.84 1003.56 1003.60 1003.78 1004.12 1004.52 1004.99 1005.72 1006.65 1008.64 1012.42 1014.14 1015.31 1016.22 1017.50 1018.64 1019.58 1020.40 1021.26
1013.72 1012.29 1012.12 1012.30 1012.01 1010.10 1008.22 1006.25 1005.65 1004.56 1004.32 1003.42 1002.77 1001.82 1001.62 1002.11 1002.53 1002.84 1003.80 1004.82 1005.70 1005.50 1004.95 1005.41 1005.08 1004.17 1004.25 1004.66 1004.72 1004.82 1005.26 1005.71 1006.23 1006.77 1007.77 1009.05 1013.53 1015.18 1016.04 1016.86 1017.92 1018.98 1019.85 1020.66 1021.52
1012.42 1011.58 1012.12 1012.02 1010.30 1008.60 1007.45 1006.52 1005.82 1004.89 1004.25 1003.62 1002.95 1002.65 1002.54 1002.97 1003.38 1003.71 1005.18 1006.33 1006.48 1006.25 1006.62 1006.43 1005.82 1005.21 1004.91 1005.58 1005.51 1005.59 1006.23 1006.57 1006.88 1007.57 1007.98 1009.50 1013.74 1015.34 1016.32 1017.35 1018.27 1019.36 1020.27 1021.03 1021.83
1012.34 1010.73 1011.49 1011.49 1009.59 1008.14 1007.04 1006.49 1005.98 1005.34 1004.36 1003.85 1003.53 1003.64 1003.60 1003.60 1004.13 1004.61 1005.94 1006.86 1006.97 1007.24 1007.40 1007.31 1006.64 1006.45 1006.50 1006.94 1007.04 1006.76 1007.18 1007.48 1007.67 1008.20 1008.69 1010.62 1013.34 1014.81 1016.06 1017.29 1018.57 1019.60 1020.47 1021.34 1022.17
1011.59 1009.08 1009.00 1009.38 1008.85 1007.73 1006.64 1006.07 1005.60 1005.34 1004.95 1004.53 1004.24 1004.02 1004.01 1004.30 1004.53 1005.04 1006.06 1006.98 1007.37 1007.71 1007.57 1007.32 1007.29 1007.40 1007.58 1007.86 1007.98 1007.96 1008.10 1008.42 1008.79 1009.25 1009.90 1011.64 1013.31 1015.12 1016.48 1017.50 1018.69 1019.76 1020.67 1021.58 1022.48
1011.17 1009.09 1008.80 1007.76 1007.90 1007.66 1006.51 1005.71 1005.29 1005.10 1004.92 1004.80 1004.45 1004.12 1004.31 1004.78 1004.86 1005.16 1006.07 1006.42 1006.90 1007.52 1007.66 1007.83 1008.13 1008.22 1008.50 1008.65 1008.87 1009.05 1009.30 1009.68 1010.15 1010.48 1011.19 1012.34 1014.44 1015.93 1017.01 1017.88 1018.88 1019.94 1020.77 1021.63 1022.73
1010.60 1010.00 1009.48 1008.25 1007.75 1007.38 1006.45 1005.95 1005.35 1005.22 1005.65 1004.94 1004.65 1004.64 1005.29 1005.93 1006.07 1006.06 1006.39 1006.63 1007.14 1007.60 1007.99 1008.18 1008.48 1008.77 1008.98 1009.52 1009.88 1010.32 1010.44 1010.59 1011.20 1011.84 1012.15 1013.09 1014.78 1015.67 1016.70 1017.85 1018.87 1019.76 1020.86 1021.93 1023.26
Wind_Speed
10 11 13 12 12 14 14 13 13 14 17 18 18 18 19 19 22 13 13 4 3 17 5 9 13 15 15 16 17 18 14 17 11 15 9 7 26 6 2 10 15 13 12 22 27
10 11 13 13 12 13 14 14 13 15 17 18 18 19 18 17 14 16 4 8 12 14 9 15 15 15 13 14 16 16 13 22 10 16 9 17 14 9 1 15 17 7 21 25 24
11 12 13 14 13 13 14 15 14 16 17 18 18 19 19 16 12 4 6 9 13 15 16 17 17 16 17 16 19 17 17 21 10 4 13 14 12 7 6 14 10 14 23 22 22
10 12 13 14 15 14 14 15 15 16 16 18 18 18 21 6 6 6 9 12 11 14 14 17 20 13 15 17 19 18 18 21 20 10 5 14 12 13 17 10 9 21 22 21 20
9 11 13 14 15 15 15 16 15 16 16 18 17 16 13 9 16 11 11 12 11 10 16 16 15 15 17 17 19 19 19 16 18 11 15 11 15 26 26 22 24 19 19 20 18
8 10 11 14 15 15 16 17 16 16 16 17 16 12 8 12 5 15 10 13 12 14 15 19 16 14 16 17 16 19 18 15 14 15 16 8 11 9 9 9 18 9 11 11 13
9 10 11 13 14 15 16 19 17 16 17 16 12 6 11 19 2 0 7 9 14 16 16 18 16 15 9 15 16 19 18 17 19 19 16 13 13 15 3 7 10 13 11 12 12
9 9 11 13 14 15 16 19 19 18 17 14 6 7 10 7 15 20 11 11 12 10 16 16 10 15 15 15 20 16 16 16 18 14 14 8 9 10 18 8 18 16 13 12 13
9 10 12 13 14 15 17 19 20 19 12 6 6 8 9 2 11 12 13 16 14 13 11 11 8 12 15 16 14 14 17 23 10 4 13 18 14 5 10 8 17 16 13 13 13
10 10 12 13 14 16 18 20 12 9 7 9 11 8 9 12 9 6 9 12 12 13 13 11 11 13 14 14 15 17 19 8 11 8 10 14 13 11 13 15 17 17 15 13 12
10 10 12 14 15 14 13 5 6 7 12 11 4 14 3 3 2 9 11 12 14 12 14 15 12 14 18 18 20 15 15 9 11 15 19 19 12 18 16 15 16 15 15 14 16
10 11 13 15 15 14 7 7 7 5 9 21 17 14 9 7 6 14 14 14 15 16 17 16 16 17 17 12 8 11 15 15 16 17 4 17 20 18 17 20 16 15 15 17 13
10 11 13 16 17 10 10 6 6 7 7 10 11 13 12 11 13 14 12 16 14 16 17 17 17 7 7 8 10 11 14 16 18 15 11 17 16 18 18 17 15 15 14 15 14
9 11 12 18 4 7 5 3 7 4 6 12 8 8 11 8 9 9 14 15 12 16 16 16 16 9 5 11 10 15 14 13 11 11 13 15 4 14 15 14 12 13 13 13 12
8 10 12 6 10 4 7 6 4 3 5 15 10 6 9 13 11 9 8 10 14 13 12 15 10 13 8 13 15 16 13 8 15 14 16 19 12 7 10 14 11 12 12 12 12
7 10 13 4 6 9 8 8 3 6 6 7 8 9 14 12 10 13 10 10 9 10 11 15 4 3 8 11 8 8 13 11 15 13 13 18 3 9 5 10 12 12 11 11 12
7 9 9 8 1 7 7 4 5 8 14 10 10 14 16 12 9 11 13 12 8 6 10 13 14 9 4 10 10 9 9 9 11 11 7 9 13 11 10 11 11 11 10 11 13
8 8 7 8 6 7 4 6 7 11 9 11 15 16 11 9 10 15 13 13 13 8 11 10 12 12 8 4 10 10 11 8 15 11 6 1 10 8 11 11 10 10 10 11 11
9 4 5 4 7 3 5 8 5 3 10 10 15 14 10 13 4 7 8 7 4 7 6 8 7 8 4 4 8 5 6 6 8 11 11 10 13 17 17 12 10 10 10 11 10
4 5 6 8 5 4 6 8 2 7 2 12 12 14 10 11 8 8 10 6 4 4 5 7 1 3 6 5 4 8 4 7 4 4 5 8 11 8 9 12 11 10 10 10 10
5 5 6 7 4 5 8 7 3 1 4 5 13 9 9 14 12 11 8 7 2 4 5 7 5 6 5 1 6 5 7 7 7 7 5 3 7 9 9 9 10 9 9 9 9
4 4 6 6 6 6 9 4 4 6 5 5 8 7 2 6 6 7 12 8 2 5 1 6 5 2 9 5 5 3 8 8 6 12 9 6 6 9 9 9 10 9 9 9 9
4 5 4 5 7 9 5 5 5 6 10 4 1 6 1 5 3 5 9 6 1 3 6 6 3 6 3 3 3 6 8 8 7 5 8 3 7 9 9 8 9 9 8 8 8
6 5 4 7 9 5 11 10 7 5 4 2 5 3 5 5 1 6 8 3 5 6 4 3 3 6 2 5 9 4 6 7 5 4 6 11 14 11 8 9 8 8 8 8 7
5 5 8 9 8 9 11 12 13 7 4 7 6 10 7 6 6 8 11 9 6 3 0 4 3 4 8 6 5 6 6 9 10 8 8 15 15 11 9 11 10 8 8 7 7
5 2 3 5 10 9 5 11 13 13 9 7 7 9 8 5 2 9 10 9 5 6 3 1 2 3 3 4 5 6 6 8 6 7 7 12 12 10 9 10 8 7 5 5 5
2 2 4 1 9 9 8 9 13 9 3 3 4 6 14 14 14 14 12 10 6 6 3 3 5 3 4 3 4 3 5 7 9 10 11 12 11 7 9 9 9 8 6 8 8
Wind_Direction
325 326 323 326 327 322 321 324 324 326 324 320 321 320 321 324 310 278 265 224 192 173 233 186 224 243 247 253 243 264 277 275 31 335 147 320 294 111 98 129 65 47 40 128 141
315 316 317 318 321 319 318 317 322 324 323 319 319 318 321 328 302 277 237 157 158 172 203 210 217 227 239 250 242 234 256 266 70 302 277 215 206 144 100 137 93 40 104 121 144
307 309 312 313 318 317 316 314 318 322 321 316 318 319 320 320 283 215 173 177 176 182 243 226 232 220 237 243 250 238 250 273 283 255 298 308 314 32 281 65 144 156 134 138 148
298 305 305 308 313 313 311 309 312 316 316 312 316 322 316 272 280 98 172 193 188 196 239 258 243 254 242 250 250 262 263 277 292 290 301 310 346 320 17 81 151 168 142 146 152
286 298 301 303 308 308 307 304 308 309 311 308 313 328 323 237 253 138 170 135 160 204 226 235 240 240 252 252 262 256 265 276 295 299 307 359 324 64 60 38 73 108 142 150 157
282 290 295 298 305 303 303 301 302 306 302 301 306 320 249 255 227 154 207 162 180 204 218 239 243 244 262 268 283 290 300 280 281 290 306 295 299 94 109 94 78 96 153 152 149
287 291 294 298 301 300 304 298 298 292 291 296 294 270 261 243 273 77 209 231 206 202 227 236 255 264 270 267 266 277 282 284 277 273 255 11 275 65 118 196 175 160 138 139 144
292 299 300 300 298 302 301 296 293 291 298 285 259 235 259 232 242 248 238 230 247 253 230 263 262 261 274 278 284 277 265 264 264 317 53 61 262 181 202 192 132 118 121 123 115
303 307 304 301 303 304 299 294 290 289 277 257 191 227 253 131 225 235 232 232 215 222 233 257 282 264 252 251 258 258 257 258 307 179 131 200 266 97 240 122 122 114 113 107 108
306 310 307 305 307 305 306 283 281 308 231 201 265 216 253 237 194 218 212 241 236 212 217 220 236 238 238 252 248 248 252 295 261 38 342 328 80 52 67 69 110 105 104 104 107
307 311 308 304 307 309 324 267 204 196 233 218 239 235 132 237 248 232 229 220 245 208 218 209 234 238 241 233 241 278 295 283 162 183 216 242 93 57 31 108 102 111 110 112 97
307 310 309 305 306 303 283 256 51 345 290 220 253 233 283 295 252 228 196 199 215 229 209 237 221 244 260 276 331 305 302 301 296 289 112 106 88 79 60 36 73 94 101 98 106
306 311 310 307 310 278 234 347 331 331 261 202 221 234 230 218 235 193 193 210 208 227 235 230 240 174 331 301 288 273 270 279 282 304 311 123 111 96 86 78 72 75 95 105 115
306 311 311 314 289 245 236 16 3 314 265 155 198 211 189 223 244 249 179 208 230 226 237 250 239 278 259 276 280 284 296 315 313 296 279 281 119 102 97 92 83 85 94 100 114
304 310 307 322 314 254 50 352 332 249 245 155 137 103 179 210 134 194 207 232 230 224 246 243 238 271 247 268 278 269 289 307 294 284 288 276 109 205 132 105 95 90 93 105 115
304 308 320 230 218 283 16 320 261 228 224 154 140 182 170 215 232 147 180 252 247 239 221 270 319 284 259 271 263 309 289 279 270 261 261 265 255 143 78 92 110 96 100 108 109
298 301 297 314 341 347 325 244 212 253 141 157 172 161 183 193 195 171 188 200 202 201 215 221 243 202 232 279 260 230 263 273 258 232 248 20 72 89 88 59 86 113 119 116 111
293 297 279 250 323 342 276 220 242 211 205 150 143 180 183 155 162 182 186 193 225 273 282 223 194 190 136 256 304 297 236 257 304 312 324 13 133 98 101 103 101 105 113 114 113
299 223 239 213 219 244 248 216 213 266 125 152 164 186 198 175 148 210 233 233 148 207 314 323 117 94 53 312 271 319 259 332 306 292 276 89 107 137 134 118 112 114 115 115 124
275 219 208 134 174 218 238 255 287 349 332 184 182 195 164 179 209 202 200 57 85 4 334 341 192 120 120 246 207 279 341 306 52 330 14 113 103 105 86 113 118 109 109 115 121
249 211 122 153 189 211 228 243 245 55 337 287 223 198 189 176 201 209 163 90 356 125 304 338 262 121 188 265 33 346 32 348 336 305 312 314 83 53 65 71 96 102 114 124 125
247 216 143 168 197 202 235 258 331 178 220 267 277 202 187 146 207 189 99 54 17 331 198 56 321 311 89 60 359 22 25 355 348 330 326 308 79 68 74 88 103 104 109 114 121
232 130 158 215 214 199 207 211 254 197 200 203 230 0 167 161 148 113 88 39 11 33 12 5 272 278 186 90 56 34 4 354 334 274 283 358 116 121 107 87 101 109 110 115 123
267 144 141 211 275 265 190 208 204 290 130 208 165 195 204 142 218 146 114 85 76 79 330 321 18 339 105 162 259 47 25 360 332 294 360 92 135 129 104 108 106 104 112 118 123
245 196 164 189 227 230 186 185 187 172 229 203 173 198 179 184 163 168 120 139 135 153 135 326 102 50 65 70 50 44 46 43 47 10 58 77 83 81 65 72 77 96 105 117 114
286 331 160 175 195 209 164 193 191 181 168 176 198 196 162 160 246 142 153 151 135 170 101 332 114 110 81 88 75 75 72 85 44 65 71 117 99 91 112 132 121 106 107 111 104
102 260 289 58 169 191 185 206 201 134 12 203 265 139 77 60 42 58 58 51 85 141 105 129 157 200 142 29 34 153 43 67 75 41 19 78 93 154 120 77 58 116 97 83 89